• Join FlightAware (Why Join?)
  • Login
  • US Flag 
Gobble Gobble! 
02:20AM EST


 

Airport Tracker/Info


-or-


 

Live Flight TrackerFlight Track Log ✈ CWC440 ✈ 13-Jul-2013 ✈ SKBO / BOG - KMIA

Flight Track Log - Related Links

Times and Time Zones

All times are in EDT time to prevent confusion due to time zone crossing. See the CWC440 flight status page for this flight to view local times or setup timezone preferences in your user account.

Time Position Orientation Groundspeed Altitude Reporting Facility
EDT Latitude Longitude Course Direction KTS MPH feet Rate Location/Type
09:03AM 25.7954 -80.2901 345° North  Level Estimated
09:04AM 25.7954 -80.2901 318° Northwest  Level Estimated
09:05AM 25.7954 -80.2901 318° Northwest  Level Estimated
09:05AM 23.2539 -78.8828 318° Northwest 497 572 34,000  Level Miami Center
09:06AM 25.7954 -80.2901 318° Northwest  Level Estimated
09:06AM 23.3558 -78.9092 347° North 485 558 34,000  Level Miami Center
09:07AM 25.7954 -80.2901 318° Northwest  Level Estimated
09:07AM 23.5036 -78.9478 347° North 474 545 34,000  Level Miami Center
09:08AM 25.7954 -80.2901 318° Northwest  Level Estimated
09:08AM 23.6411 -78.9819 347° North 494 568 34,000  Level Miami Center
09:09AM 25.7954 -80.2901 318° Northwest  Level Estimated
09:09AM 23.7700 -79.0158 346° North 489 563 34,000  Level Miami Center
09:10AM 25.7954 -80.2901 318° Northwest  Level Estimated
09:10AM 23.9014 -79.0475 348° North 484 557 33,900  Level Miami Center
09:11AM 24.0325 -79.0772 348° North 489 563 33,900  Level Miami Center
09:12AM 24.1636 -79.1136 346° North 483 556 34,000 -900 Climbing Miami Center
09:13AM 24.2922 -79.1775 336° Northwest 491 565 32,200 -2,160 Descending Miami Center
09:14AM 24.4186 -79.2369 337° Northwest 491 565 29,700 -2,340 Descending Miami Center
09:15AM 24.5389 -79.3008 334° Northwest 491 565 27,600 -2,100 Descending Miami Center
09:16AM 24.6592 -79.3603 336° Northwest 484 557 25,500 -2,160 Descending Miami Center
09:17AM 24.7708 -79.4175 335° Northwest 457 526 23,300 -2,220 Descending Miami Center
09:18AM 24.8828 -79.4703 337° Northwest 444 511 21,100 -2,220 Descending Miami Center
09:19AM 24.9864 -79.5253 334° Northwest 423 487 18,900 -2,160 Descending Miami Center
09:20AM 25.0897 -79.5756 336° Northwest 412 474 16,800 -2,100 Descending Miami Center
09:21AM 25.1806 -79.6419 327° Northwest 398 458 14,700 -2,100 Descending Miami Center
09:22AM 25.2606 -79.7242 317° Northwest 391 450 12,700 -1,740 Descending Miami Center
09:22AM 25.3033 -79.7756 313° West 368 423 12,100 -720 Descending Miami Center
09:23AM 25.3239 -79.7922 324° Northwest 370 426 12,000  Descending Miami Center
09:23AM 25.3667 -79.8417 314° West 301 346 12,100 -240 Climbing Miami Center
09:24AM 25.4367 -79.8961 325° Northwest 307 353 11,700 -960 Descending Miami Center
09:25AM 25.5281 -79.9169 348° North 298 343 10,100 -1,440 Descending Miami Center
09:26AM 25.5989 -79.9278 352° North 296 341 8,800 -1,560 Descending Miami Center
09:27AM 25.6928 -79.9325 357° North 295 339 7,000 -1,500 Descending Miami Center
09:29AM 25.7742 -79.9461 351° North 284 327 5,600 -1,440 Descending Miami Center
09:30AM 25.8169 -79.9936 315° West 251 289 4,100 -1,080 Descending Miami Center
09:31AM 25.8069 -80.0717 262° West 206 237 3,300 -780 Descending Miami Center
09:32AM 25.8078 -80.1294 271° West 177 204 2,500 -900 Descending Miami Center
09:33AM 25.8022 -80.1869 264° West 163 188 1,500 -840 Descending Miami Center
09:34AM 25.8014 -80.2283 269° West 153 176 900 -660 Descending Miami Center
09:36AM 25.7954 -80.2901 254° West  Level Estimated
09:43AM 25.7954 -80.2901 77° East  Level Estimated